NKS1992 KORD-KLGA

Flight info

Callsign NKS1992
Flight time 1h 37m
Altitude 39000
Route EBAKE WISMO POSTS PADDE SOSIC ETG MIP4
Aircraft A20N/M-SDE2E3FGHIRWXY/LB1

Departure

Time 2026-05-05 13:37
Airport Chicago O'Hare International Airport (KORD)

Arrival

Time 2026-05-05 15:14
Airport LaGuardia Airport (KLGA)
Time Latitude Longitude Altitude Speed Heading
2026-05-05 13:27 41.97358 -87.89084 661 ft 0 kts 359°
2026-05-05 13:31 41.97349 -87.89084 661 ft 4 kts 359°
2026-05-05 13:31 41.97320 -87.89084 661 ft 4 kts
2026-05-05 13:31 41.97291 -87.89088 661 ft 4 kts 20°
2026-05-05 13:31 41.97269 -87.89113 660 ft 4 kts 72°
2026-05-05 13:32 41.97267 -87.89124 660 ft 0 kts 86°
2026-05-05 13:33 41.97267 -87.89121 660 ft 2 kts 86°
2026-05-05 13:34 41.97269 -87.89090 660 ft 8 kts 85°
2026-05-05 13:34 41.97270 -87.88961 659 ft 19 kts 90°
2026-05-05 13:34 41.97271 -87.88746 659 ft 26 kts 90°
2026-05-05 13:34 41.97270 -87.88493 659 ft 28 kts 87°
2026-05-05 13:35 41.97206 -87.88340 660 ft 16 kts 138°
2026-05-05 13:35 41.97198 -87.88191 660 ft 19 kts 89°
2026-05-05 13:35 41.97183 -87.88058 661 ft 6 kts 147°
2026-05-05 13:35 41.97136 -87.88038 663 ft 10 kts 172°
2026-05-05 13:36 41.97045 -87.88033 667 ft 16 kts 179°
2026-05-05 13:36 41.96922 -87.88062 666 ft 20 kts 219°
2026-05-05 13:36 41.96706 -87.88318 664 ft 80 kts 222°
2026-05-05 13:36 41.96102 -87.89036 670 ft 148 kts 221°
2026-05-05 13:37 41.95250 -87.90026 1126 ft 168 kts 225°
2026-05-05 13:37 41.94353 -87.91118 1919 ft 181 kts 227°
2026-05-05 13:37 41.93408 -87.92306 2687 ft 183 kts 229°
2026-05-05 13:37 41.92435 -87.93493 3171 ft 201 kts 226°
2026-05-05 13:38 41.91325 -87.94775 3649 ft 222 kts 223°
2026-05-05 13:38 41.89844 -87.95701 4085 ft 253 kts 192°
2026-05-05 13:38 41.88011 -87.95528 4618 ft 278 kts 162°
2026-05-05 13:38 41.86344 -87.94140 5397 ft 290 kts 135°
2026-05-05 13:39 41.85259 -87.91810 6159 ft 306 kts 110°
2026-05-05 13:39 41.85000 -87.88931 6902 ft 315 kts 82°
2026-05-05 13:39 41.85663 -87.86137 7709 ft 317 kts 55°
2026-05-05 13:39 41.87114 -87.83955 8476 ft 312 kts 28°
2026-05-05 13:40 41.88959 -87.82490 9258 ft 315 kts 22°
2026-05-05 13:40 41.90818 -87.80835 10010 ft 327 kts 33°
2026-05-05 13:40 41.92522 -87.78695 10549 ft 348 kts 43°
2026-05-05 13:40 41.94115 -87.76075 10802 ft 374 kts 50°
2026-05-05 13:41 41.95634 -87.73129 11229 ft 390 kts 53°
2026-05-05 13:41 41.97121 -87.70054 11967 ft 395 kts 54°
2026-05-05 13:41 41.98621 -87.66919 12685 ft 401 kts 54°
2026-05-05 13:41 42.00146 -87.63747 13411 ft 406 kts 53°
2026-05-05 13:42 42.01694 -87.60548 14085 ft 411 kts 53°
2026-05-05 13:42 42.03266 -87.57315 14758 ft 414 kts 53°
2026-05-05 13:42 42.04855 -87.54053 15447 ft 418 kts 53°
2026-05-05 13:42 42.06458 -87.50763 16117 ft 422 kts 53°
2026-05-05 13:43 42.08060 -87.47472 16733 ft 427 kts 52°
2026-05-05 13:43 42.09694 -87.44111 17376 ft 431 kts 52°
2026-05-05 13:43 42.11344 -87.40715 18017 ft 435 kts 52°
2026-05-05 13:43 42.13011 -87.37280 18559 ft 440 kts 52°
2026-05-05 13:44 42.14693 -87.33811 19066 ft 445 kts 52°
2026-05-05 13:44 42.16400 -87.30289 19563 ft 450 kts 52°
2026-05-05 13:44 42.18119 -87.26736 20069 ft 455 kts 52°
2026-05-05 13:44 42.19858 -87.23135 20579 ft 460 kts 52°
2026-05-05 13:45 42.21611 -87.19503 21074 ft 464 kts 52°
2026-05-05 13:45 42.23382 -87.15830 21575 ft 469 kts 52°
2026-05-05 13:45 42.25169 -87.12119 22072 ft 474 kts 52°
2026-05-05 13:45 42.26836 -87.08241 22550 ft 483 kts 63°
2026-05-05 13:46 42.27893 -87.03901 23016 ft 491 kts 78°
2026-05-05 13:46 42.28256 -86.99298 23468 ft 495 kts 88°
2026-05-05 13:46 42.28435 -86.94654 23903 ft 498 kts 88°
2026-05-05 13:46 42.28612 -86.90032 24356 ft 500 kts 88°
2026-05-05 13:47 42.28794 -86.85332 24785 ft 503 kts 88°
2026-05-05 13:47 42.28979 -86.80588 25203 ft 506 kts 88°
2026-05-05 13:47 42.29165 -86.75837 25612 ft 509 kts 88°
2026-05-05 13:47 42.29351 -86.71048 26024 ft 512 kts 88°
2026-05-05 13:48 42.29536 -86.66227 26421 ft 514 kts 88°
2026-05-05 13:48 42.29720 -86.61391 26806 ft 517 kts 88°
2026-05-05 13:48 42.29903 -86.56530 27186 ft 520 kts 88°
2026-05-05 13:48 42.30084 -86.51642 27568 ft 522 kts 88°
2026-05-05 13:49 42.30265 -86.46722 27940 ft 525 kts 88°
2026-05-05 13:49 42.30444 -86.41781 28291 ft 527 kts 88°
2026-05-05 13:49 42.30622 -86.36808 28633 ft 530 kts 88°
2026-05-05 13:49 42.30797 -86.31889 28968 ft 532 kts 88°
2026-05-05 13:50 42.30972 -86.26888 29296 ft 534 kts 88°
2026-05-05 13:50 42.31145 -86.21863 29621 ft 537 kts 88°
2026-05-05 13:50 42.31317 -86.16811 29935 ft 539 kts 88°
2026-05-05 13:50 42.31488 -86.11748 30221 ft 541 kts 88°
2026-05-05 13:51 42.31528 -86.06658 30513 ft 542 kts 92°
2026-05-05 13:51 42.31464 -86.01560 30788 ft 544 kts 92°
2026-05-05 13:51 42.31410 -85.96450 31108 ft 545 kts 92°
2026-05-05 13:51 42.31356 -85.91331 31484 ft 544 kts 92°
2026-05-05 13:52 42.31299 -85.86223 31866 ft 543 kts 92°
2026-05-05 13:52 42.31238 -85.81120 32248 ft 542 kts 92°
2026-05-05 13:52 42.31174 -85.76038 32631 ft 540 kts 92°
2026-05-05 13:52 42.31108 -85.70966 32985 ft 539 kts 92°
2026-05-05 13:53 42.31039 -85.65907 33327 ft 539 kts 92°
2026-05-05 13:53 42.30968 -85.60854 33647 ft 538 kts 92°
2026-05-05 13:53 42.30894 -85.55804 33940 ft 538 kts 92°
2026-05-05 13:53 42.30820 -85.50817 34214 ft 537 kts 92°
2026-05-05 13:54 42.30743 -85.45783 34484 ft 536 kts 92°
2026-05-05 13:54 42.30663 -85.40758 34718 ft 535 kts 92°
2026-05-05 13:54 42.30581 -85.35731 34966 ft 534 kts 93°
2026-05-05 13:54 42.30497 -85.30724 35231 ft 533 kts 93°
2026-05-05 13:55 42.30411 -85.25720 35491 ft 532 kts 93°
2026-05-05 13:55 42.30324 -85.20730 35748 ft 531 kts 93°
2026-05-05 13:55 42.30234 -85.15757 35998 ft 529 kts 93°
2026-05-05 13:55 42.30142 -85.10780 36242 ft 528 kts 93°
2026-05-05 13:56 42.30049 -85.05824 36483 ft 527 kts 93°
2026-05-05 13:56 42.29952 -85.00881 36718 ft 526 kts 93°
2026-05-05 13:56 42.29840 -84.95950 36947 ft 525 kts 93°
2026-05-05 13:56 42.29720 -84.91026 37160 ft 523 kts 94°
2026-05-05 13:57 42.29598 -84.86118 37367 ft 522 kts 94°
2026-05-05 13:57 42.29476 -84.81284 37568 ft 521 kts 94°
2026-05-05 13:57 42.29353 -84.76397 37763 ft 520 kts 94°
2026-05-05 13:57 42.29229 -84.71519 37944 ft 519 kts 94°
2026-05-05 13:58 42.29102 -84.66645 38083 ft 518 kts 94°
2026-05-05 13:58 42.28975 -84.61786 38251 ft 517 kts 94°
2026-05-05 13:58 42.28845 -84.56931 38409 ft 517 kts 94°
2026-05-05 13:58 42.28714 -84.52083 38531 ft 516 kts 94°
2026-05-05 13:59 42.28391 -84.42411 38732 ft 515 kts 96°
2026-05-05 13:59 42.28123 -84.37586 38764 ft 515 kts 96°
2026-05-05 14:00 42.27376 -84.24787 38804 ft 513 kts 96°
2026-05-05 14:00 42.26748 -84.13557 38808 ft 513 kts 96°
2026-05-05 14:01 42.26214 -84.04024 38794 ft 512 kts 96°
2026-05-05 14:01 42.25669 -83.94436 38791 ft 511 kts 96°
2026-05-05 14:02 42.25117 -83.84886 38789 ft 510 kts 96°
2026-05-05 14:02 42.24558 -83.75348 38789 ft 509 kts 96°
2026-05-05 14:03 42.23992 -83.65822 38783 ft 509 kts 96°
2026-05-05 14:03 42.23417 -83.56300 38785 ft 509 kts 96°
2026-05-05 14:04 42.22607 -83.46832 38784 ft 506 kts 104°
2026-05-05 14:04 42.21068 -83.37573 38765 ft 506 kts 105°
2026-05-05 14:05 42.19536 -83.28309 38763 ft 507 kts 105°
2026-05-05 14:05 42.18012 -83.19088 38756 ft 507 kts 105°
2026-05-05 14:06 42.16467 -83.09808 38762 ft 507 kts 105°
2026-05-05 14:06 42.14909 -83.00524 38758 ft 508 kts 105°
2026-05-05 14:07 42.13335 -82.91211 38740 ft 511 kts 105°
2026-05-05 14:07 42.11740 -82.81821 38743 ft 516 kts 105°
2026-05-05 14:08 42.10123 -82.72347 38743 ft 521 kts 105°
2026-05-05 14:08 42.08498 -82.62874 38742 ft 524 kts 105°
2026-05-05 14:09 42.06850 -82.53319 38748 ft 524 kts 105°
2026-05-05 14:09 42.05187 -82.43733 38747 ft 527 kts 105°
2026-05-05 14:10 42.03515 -82.34143 38750 ft 527 kts 105°
2026-05-05 14:10 42.01834 -82.24550 38749 ft 527 kts 105°
2026-05-05 14:11 42.00145 -82.14967 38750 ft 526 kts 105°
2026-05-05 14:11 41.98449 -82.05392 38754 ft 526 kts 105°
2026-05-05 14:12 41.96745 -81.95824 38753 ft 526 kts 105°
2026-05-05 14:12 41.95049 -81.86346 38755 ft 525 kts 105°
2026-05-05 14:13 41.93333 -81.76809 38758 ft 524 kts 105°
2026-05-05 14:13 41.91613 -81.67292 38766 ft 524 kts 105°
2026-05-05 14:14 41.89888 -81.57801 38771 ft 523 kts 106°
2026-05-05 14:14 41.88157 -81.48327 38776 ft 522 kts 106°
2026-05-05 14:15 41.86421 -81.38871 38776 ft 522 kts 106°
2026-05-05 14:15 41.84679 -81.29427 38776 ft 521 kts 106°
2026-05-05 14:16 41.82930 -81.19995 38773 ft 521 kts 106°
2026-05-05 14:16 41.81187 -81.10642 38774 ft 520 kts 106°
2026-05-05 14:17 41.79426 -81.01240 38777 ft 520 kts 106°
2026-05-05 14:17 41.77658 -80.91844 38781 ft 519 kts 106°
2026-05-05 14:18 41.75882 -80.82452 38782 ft 519 kts 106°
2026-05-05 14:18 41.74101 -80.73082 38785 ft 518 kts 106°
2026-05-05 14:19 41.72318 -80.63739 38785 ft 518 kts 107°
2026-05-05 14:19 41.70525 -80.54398 38785 ft 518 kts 107°
2026-05-05 14:20 41.68746 -80.45167 38808 ft 518 kts 107°
2026-05-05 14:20 41.66937 -80.35824 38819 ft 517 kts 107°
2026-05-05 14:21 41.65121 -80.26495 38822 ft 518 kts 107°
2026-05-05 14:21 41.63298 -80.17173 38826 ft 518 kts 107°
2026-05-05 14:22 41.61467 -80.07851 38819 ft 518 kts 107°
2026-05-05 14:22 41.59939 -80.00104 38817 ft 519 kts 107°
2026-05-05 14:23 41.57788 -79.89248 38828 ft 520 kts 107°
2026-05-05 14:23 41.55931 -79.79930 38831 ft 519 kts 107°
2026-05-05 14:24 41.54366 -79.72105 38827 ft 520 kts 107°
2026-05-05 14:24 41.52496 -79.62797 38825 ft 519 kts 107°
2026-05-05 14:25 41.50630 -79.53550 38826 ft 519 kts 107°
2026-05-05 14:25 41.48742 -79.44239 38826 ft 518 kts 107°
2026-05-05 14:26 41.46856 -79.34973 38822 ft 517 kts 107°
2026-05-05 14:26 41.44964 -79.25725 38824 ft 517 kts 107°
2026-05-05 14:27 41.43078 -79.16545 38835 ft 516 kts 107°
2026-05-05 14:27 41.41176 -79.07331 38842 ft 515 kts 107°
2026-05-05 14:28 41.39272 -78.98146 38847 ft 514 kts 107°
2026-05-05 14:28 41.37364 -78.88985 38847 ft 513 kts 107°
2026-05-05 14:29 41.35447 -78.79819 38851 ft 511 kts 107°
2026-05-05 14:29 41.33533 -78.70710 38848 ft 510 kts 107°
2026-05-05 14:30 41.31627 -78.61676 38849 ft 509 kts 107°
2026-05-05 14:30 41.29710 -78.52623 38853 ft 508 kts 107°
2026-05-05 14:31 41.27787 -78.43588 38857 ft 507 kts 108°
2026-05-05 14:31 41.25861 -78.34571 38859 ft 505 kts 108°
2026-05-05 14:32 41.23949 -78.25638 38857 ft 505 kts 108°
2026-05-05 14:32 41.22025 -78.16678 38854 ft 503 kts 108°
2026-05-05 14:33 41.20582 -78.07584 38851 ft 503 kts 100°
2026-05-05 14:33 41.19502 -77.98406 38845 ft 503 kts 100°
2026-05-05 14:34 41.18388 -77.89248 38850 ft 502 kts 100°
2026-05-05 14:34 41.17248 -77.80133 38847 ft 500 kts 101°
2026-05-05 14:35 41.16104 -77.71097 38847 ft 499 kts 101°
2026-05-05 14:35 41.14951 -77.62034 38849 ft 497 kts 101°
2026-05-05 14:36 41.13794 -77.52996 38851 ft 496 kts 101°
2026-05-05 14:36 41.12632 -77.43983 38853 ft 494 kts 101°
2026-05-05 14:37 41.11466 -77.34995 38855 ft 495 kts 101°
2026-05-05 14:37 41.10289 -77.25987 38852 ft 495 kts 101°
2026-05-05 14:38 41.09107 -77.16981 38852 ft 495 kts 101°
2026-05-05 14:38 41.07923 -77.08029 38849 ft 496 kts 101°
2026-05-05 14:39 41.06725 -76.99022 38848 ft 496 kts 101°
2026-05-05 14:39 41.05521 -76.90027 38848 ft 496 kts 101°
2026-05-05 14:40 41.04310 -76.81038 38856 ft 496 kts 101°
2026-05-05 14:40 41.03093 -76.72057 38885 ft 496 kts 101°
2026-05-05 14:41 41.01550 -76.63187 38882 ft 493 kts 110°
2026-05-05 14:41 40.99459 -76.54542 38896 ft 492 kts 109°
2026-05-05 14:42 40.97390 -76.45906 38906 ft 491 kts 109°
2026-05-05 14:42 40.95315 -76.37296 38914 ft 491 kts 110°
2026-05-05 14:43 40.93235 -76.28711 38928 ft 490 kts 110°
2026-05-05 14:43 40.91153 -76.20150 38933 ft 489 kts 110°
2026-05-05 14:44 40.89077 -76.11645 38943 ft 489 kts 110°
2026-05-05 14:44 40.86982 -76.03094 38943 ft 488 kts 110°
2026-05-05 14:45 40.84886 -75.94569 38950 ft 488 kts 110°
2026-05-05 14:45 40.82784 -75.86048 38940 ft 488 kts 110°
2026-05-05 14:46 40.80678 -75.77545 38935 ft 487 kts 110°
2026-05-05 14:46 40.78573 -75.69074 38932 ft 486 kts 110°
2026-05-05 14:47 40.76456 -75.60588 38929 ft 486 kts 110°
2026-05-05 14:47 40.74346 -75.52155 38691 ft 481 kts 110°
2026-05-05 14:48 40.73297 -75.47974 37857 ft 478 kts 110°
2026-05-05 14:48 40.72319 -75.43778 36798 ft 479 kts 106°
2026-05-05 14:48 40.71482 -75.39527 35693 ft 480 kts 106°
2026-05-05 14:48 40.70638 -75.35260 34585 ft 482 kts 105°
2026-05-05 14:49 40.69799 -75.31044 33437 ft 484 kts 105°
2026-05-05 14:49 40.68940 -75.26736 32101 ft 487 kts 105°
2026-05-05 14:49 40.68074 -75.22409 30767 ft 492 kts 105°
2026-05-05 14:49 40.67054 -75.18087 29326 ft 494 kts 114°
2026-05-05 14:50 40.65497 -75.14081 28185 ft 488 kts 124°
2026-05-05 14:50 40.63506 -75.10565 27564 ft 470 kts 134°
2026-05-05 14:50 40.61336 -75.07477 27227 ft 449 kts 135°
2026-05-05 14:50 40.59251 -75.04480 26820 ft 441 kts 134°
2026-05-05 14:51 40.57381 -75.01254 25821 ft 447 kts 125°
2026-05-05 14:51 40.55855 -74.97650 24513 ft 457 kts 116°
2026-05-05 14:51 40.54662 -74.93714 23329 ft 462 kts 112°
2026-05-05 14:51 40.53516 -74.89786 22435 ft 455 kts 113°
2026-05-05 14:52 40.52388 -74.85972 21951 ft 438 kts 113°
2026-05-05 14:52 40.51286 -74.82274 21405 ft 432 kts 114°
2026-05-05 14:52 40.50199 -74.78651 20865 ft 428 kts 114°
2026-05-05 14:52 40.49102 -74.75000 20295 ft 424 kts 114°
2026-05-05 14:53 40.48020 -74.71403 19760 ft 421 kts 114°
2026-05-05 14:53 40.46946 -74.67837 19244 ft 418 kts 114°
2026-05-05 14:53 40.45880 -74.64302 18658 ft 416 kts 114°
2026-05-05 14:53 40.44829 -74.60820 18137 ft 413 kts 114°
2026-05-05 14:54 40.43795 -74.57261 17557 ft 411 kts 108°
2026-05-05 14:54 40.43382 -74.53625 17051 ft 409 kts 90°
2026-05-05 14:54 40.43805 -74.49946 16525 ft 406 kts 72°
2026-05-05 14:54 40.44722 -74.46467 16025 ft 402 kts 69°
2026-05-05 14:55 40.45692 -74.43042 15521 ft 399 kts 69°
2026-05-05 14:55 40.46655 -74.39632 15018 ft 397 kts 69°
2026-05-05 14:55 40.47594 -74.36240 14534 ft 394 kts 69°
2026-05-05 14:55 40.48514 -74.32864 14039 ft 392 kts 70°
2026-05-05 14:56 40.49421 -74.29495 13547 ft 390 kts 70°
2026-05-05 14:56 40.50321 -74.26142 12971 ft 389 kts 70°
2026-05-05 14:56 40.51218 -74.22789 12401 ft 388 kts 71°
2026-05-05 14:56 40.52111 -74.19445 11795 ft 388 kts 71°
2026-05-05 14:57 40.53005 -74.16095 11242 ft 387 kts 71°
2026-05-05 14:57 40.53889 -74.12780 10675 ft 383 kts 72°
2026-05-05 14:57 40.54764 -74.09506 10246 ft 369 kts 71°
2026-05-05 14:57 40.55947 -74.06616 10053 ft 351 kts 50°
2026-05-05 14:58 40.57673 -74.04501 9796 ft 332 kts 31°
2026-05-05 14:58 40.59593 -74.02855 9413 ft 327 kts 30°
2026-05-05 14:58 40.61480 -74.01258 9241 ft 318 kts 30°
2026-05-05 14:58 40.63324 -73.99700 9052 ft 320 kts 30°
2026-05-05 14:59 40.65212 -73.98130 8704 ft 321 kts 29°
2026-05-05 14:59 40.67097 -73.96583 8368 ft 315 kts 29°
2026-05-05 14:59 40.68946 -73.95065 7834 ft 312 kts 30°
2026-05-05 14:59 40.70786 -73.93550 7292 ft 310 kts 30°
2026-05-05 15:00 40.72604 -73.92048 6782 ft 307 kts 30°
2026-05-05 15:00 40.73799 -73.91060 6409 ft 306 kts 30°
2026-05-05 15:00 40.76181 -73.89084 5794 ft 299 kts 30°
2026-05-05 15:00 40.77938 -73.87625 5284 ft 296 kts 30°
2026-05-05 15:01 40.79628 -73.86096 4761 ft 295 kts 42°
2026-05-05 15:01 40.80802 -73.83907 4186 ft 294 kts 69°
2026-05-05 15:01 40.81148 -73.81287 3637 ft 289 kts 96°
2026-05-05 15:01 40.80611 -73.78837 3206 ft 278 kts 125°
2026-05-05 15:02 40.79316 -73.77048 3033 ft 262 kts 155°
2026-05-05 15:02 40.77693 -73.76372 2992 ft 233 kts 186°
2026-05-05 15:02 40.76242 -73.76861 2995 ft 204 kts 218°
2026-05-05 15:02 40.75375 -73.78190 2869 ft 184 kts 248°
2026-05-05 15:03 40.74978 -73.79700 2734 ft 164 kts 256°
2026-05-05 15:03 40.74830 -73.81092 2477 ft 143 kts 265°
2026-05-05 15:03 40.74796 -73.82364 2112 ft 135 kts 264°
2026-05-05 15:03 40.74644 -73.83610 2034 ft 141 kts 254°
2026-05-05 15:04 40.74261 -73.84767 2013 ft 141 kts 242°
2026-05-05 15:04 40.73679 -73.85842 1994 ft 149 kts 234°
2026-05-05 15:04 40.72913 -73.86973 1983 ft 181 kts 230°
2026-05-05 15:04 40.72006 -73.88180 2130 ft 188 kts 228°
2026-05-05 15:05 40.70109 -73.90626 2918 ft 190 kts 228°
2026-05-05 15:05 40.69166 -73.91846 2986 ft 192 kts 228°
2026-05-05 15:05 40.68129 -73.93210 3021 ft 232 kts 228°
2026-05-05 15:06 40.66958 -73.94753 3018 ft 238 kts 227°
2026-05-05 15:06 40.65777 -73.96298 3014 ft 242 kts 227°
2026-05-05 15:06 40.64591 -73.97871 3020 ft 244 kts 232°
2026-05-05 15:06 40.63856 -73.99818 3016 ft 237 kts 260°
2026-05-05 15:07 40.63984 -74.01933 3016 ft 237 kts 288°
2026-05-05 15:07 40.64930 -74.03657 3013 ft 234 kts 318°
2026-05-05 15:07 40.66519 -74.04533 3013 ft 266 kts 346°
2026-05-05 15:07 40.68387 -74.04310 3019 ft 277 kts 15°
2026-05-05 15:08 40.70055 -74.02974 3018 ft 287 kts 38°
2026-05-05 15:08 40.71495 -74.01141 3020 ft 288 kts 43°
2026-05-05 15:08 40.72884 -73.99238 3008 ft 287 kts 43°
2026-05-05 15:08 40.74273 -73.97352 3012 ft 287 kts 43°
2026-05-05 15:09 40.75668 -73.95491 2996 ft 281 kts 42°
2026-05-05 15:09 40.77003 -73.93696 2997 ft 266 kts 43°
2026-05-05 15:09 40.78263 -73.91998 2993 ft 248 kts 43°
2026-05-05 15:09 40.79403 -73.90455 2990 ft 221 kts 42°
2026-05-05 15:10 40.80386 -73.89099 2998 ft 188 kts 42°
2026-05-05 15:10 40.81274 -73.87858 3002 ft 185 kts 42°
2026-05-05 15:10 40.82163 -73.86660 3004 ft 180 kts 38°
2026-05-05 15:10 40.83129 -73.85610 2998 ft 181 kts 32°
2026-05-05 15:11 40.83781 -73.84944 2986 ft 175 kts 32°
2026-05-05 15:11 40.84704 -73.83356 2847 ft 171 kts 95°
2026-05-05 15:11 40.84187 -73.82129 2611 ft 150 kts 163°
2026-05-05 15:11 40.83300 -73.82219 2213 ft 128 kts 219°
2026-05-05 15:12 40.82756 -73.83138 1735 ft 131 kts 245°
2026-05-05 15:12 40.82233 -73.84141 1317 ft 136 kts 217°
2026-05-05 15:12 40.81395 -73.84671 1036 ft 132 kts 211°
2026-05-05 15:12 40.80873 -73.85126 726 ft 136 kts 219°
2026-05-05 15:13 40.79861 -73.86003 375 ft 124 kts 213°
2026-05-05 15:13 40.79383 -73.86380 255 ft 117 kts 213°
2026-05-05 15:13 40.78680 -73.86955 84 ft 124 kts 214°
2026-05-05 15:13 40.77994 -73.87531 19 ft 103 kts 212°
2026-05-05 15:14 40.77508 -73.87927 27 ft 58 kts 211°
2026-05-05 15:14 40.77300 -73.87993 26 ft 5 kts 149°
2026-05-05 15:14 40.77288 -73.87979 26 ft 4 kts 132°
2026-05-05 15:14 40.77274 -73.87938 26 ft 4 kts 60°
2026-05-05 15:15 40.77322 -73.87925 26 ft 13 kts 19°
2026-05-05 15:15 40.77420 -73.87851 27 ft 18 kts 31°
2026-05-05 15:15 40.77537 -73.87757 27 ft 22 kts 31°
2026-05-05 15:15 40.77603 -73.87598 26 ft 20 kts 76°
2026-05-05 15:16 40.77617 -73.87560 26 ft 3 kts 82°
2026-05-05 15:16 40.77618 -73.87524 24 ft 0 kts 69°